,,PA_Meas_PMT16A,,PR_Meas_QMR101_102,,RH_Meas_QMH101,,SR_Meas_QMS101,,TA_Meas_QMH101,,GenWind,,GenWind,
time,status,PA,status,PR,status,RH,status,SR,status,TA,status,DirAvg,status,SpdAvg,
2012-05-08, 00:00:04,VALID,917.747,VALID,0,VALID,93.6613,VALID,0,VALID,20.4876,VALID,343,VALID,0.949609,
2012-05-08, 00:01:04,VALID,917.705,VALID,0,VALID,93.5851,VALID,0,VALID,20.4423,VALID,343,VALID,0.938672,
2012-05-08, 00:02:04,VALID,917.7,VALID,0,VALID,93.4783,VALID,0,VALID,20.4018,VALID,328,VALID,0.965625,
2012-05-08, 00:03:04,VALID,917.734,VALID,0,VALID,93.5241,VALID,0,VALID,20.4244,VALID,335,VALID,0.905469,
2012-05-08, 00:04:04,VALID,917.682,VALID,0,VALID,93.7451,VALID,0,VALID,20.4439,VALID,3,VALID,1.68086,
2012-05-08, 00:05:04,VALID,917.687,VALID,0,VALID,93.8519,VALID,0,VALID,20.4829,VALID,354,VALID,1.07656,
2012-05-08, 00:06:04,VALID,917.685,VALID,0,VALID,93.707,VALID,0,VALID,20.525,VALID,1,VALID,1.25391,
2012-05-08, 00:07:04,VALID,917.668,VALID,0,VALID,93.6308,VALID,0,VALID,20.5024,VALID,1,VALID,1.17578,
2012-05-08, 00:08:04,VALID,917.666,VALID,0,VALID,93.5393,VALID,0,VALID,20.504,VALID,1,VALID,1.00547,
2012-05-08, 00:09:04,VALID,917.603,VALID,0,VALID,93.6842,VALID,0,VALID,20.4829,VALID,354,VALID,1.05742,
2012-05-08, 00:10:04,VALID,917.623,VALID,0,VALID,93.7985,VALID,0,VALID,20.4197,VALID,355,VALID,1.11758,
2012-05-08, 00:11:04,VALID,917.593,VALID,0,VALID,93.7147,VALID,0,VALID,20.4829,VALID,18,VALID,0.967969,
2012-05-08, 00:12:04,VALID,917.587,VALID,0,VALID,93.8061,VALID,0,VALID,20.4603,VALID,342,VALID,0.979688,
2012-05-08, 00:13:04,VALID,917.53,VALID,0,VALID,93.9281,VALID,0,VALID,20.4993,VALID,339,VALID,0.874219,
2012-05-08, 00:14:04,VALID,917.546,VALID,0,VALID,93.8976,VALID,0,VALID,20.5414,VALID,352,VALID,1.2793,
2012-05-08, 00:15:04,VALID,917.49,VALID,0,VALID,93.6689,VALID,0,VALID,20.4798,VALID,355,VALID,0.875781,
2012-05-08, 00:16:04,VALID,917.466,VALID,0,VALID,93.6918,VALID,0,VALID,20.5219,VALID,355,VALID,0.871484,
2012-05-08, 00:17:04,VALID,917.442,VALID,0,VALID,93.7375,VALID,0,VALID,20.543,VALID,355,VALID,0.9875,
2012-05-08, 00:18:04,VALID,917.427,VALID,0,VALID,93.8214,VALID,0,VALID,20.5656,VALID,355,VALID,0.729297,
2012-05-08, 00:19:04,VALID,917.422,VALID,0,VALID,93.9815,VALID,0,VALID,20.4845,VALID,355,VALID,0.50625,
2012-05-08, 00:20:04,VALID,917.397,VALID,0,VALID,93.9891,VALID,0,VALID,20.4423,VALID,355,VALID,0.788281,
2012-05-08, 00:21:04,VALID,917.388,VALID,0,VALID,94.0958,VALID,0,VALID,20.4228,VALID,355,VALID,0.882031,
2012-05-08, 00:22:04,VALID,917.379,VALID,0,VALID,94.2788,VALID,0,VALID,20.4228,VALID,355,VALID,0.714453,
2012-05-08, 00:23:04,VALID,917.374,VALID,0,VALID,94.416,VALID,0,VALID,20.4228,VALID,355,VALID,0.716016,
2012-05-08, 00:24:04,VALID,917.361,VALID,0,VALID,94.5913,VALID,0,VALID,20.4423,VALID,355,VALID,0.579687,
2012-05-08, 00:25:04,VALID,917.318,VALID,0,VALID,94.6371,VALID,0,VALID,20.4408,VALID,355,VALID,1.05859,
2012-05-08, 00:26:04,VALID,917.335,VALID,0,VALID,94.6905,VALID,0.107441,VALID,20.4618,VALID,10,VALID,1.47148,
2012-05-08, 00:27:04,VALID,917.303,VALID,0,VALID,94.7133,VALID,0,VALID,20.4634,VALID,344,VALID,1.14414,
2012-05-08, 00:28:04,VALID,917.28,VALID,0,VALID,94.7743,VALID,0,VALID,20.4213,VALID,359,VALID,1.19727,
2012-05-08, 00:29:04,VALID,917.281,VALID,0,VALID,94.8658,VALID,0.107441,VALID,20.4634,VALID,359,VALID,0.844141,
2012-05-08, 00:30:04,VALID,917.274,VALID,0,VALID,94.9039,VALID,0.214882,VALID,20.4213,VALID,359,VALID,0.816016,
2012-05-08, 00:31:04,VALID,917.261,VALID,0,VALID,94.9344,VALID,0.107441,VALID,20.4813,VALID,359,VALID,0.428906,
2012-05-08, 00:32:04,VALID,917.27,VALID,0,VALID,94.9725,VALID,0,VALID,20.4813,VALID,359,VALID,0.320313,
2012-05-08, 00:33:04,VALID,917.227,VALID,0,VALID,94.7972,VALID,0.107441,VALID,20.4813,VALID,359,VALID,0.446094,
2012-05-08, 00:34:04,VALID,917.245,VALID,0,VALID,95.0259,VALID,0.107441,VALID,20.4782,VALID,324,VALID,0.995313,
2012-05-08, 00:35:04,VALID,917.277,VALID,0,VALID,94.9496,VALID,0,VALID,20.5399,VALID,9,VALID,0.733594,
2012-05-08, 00:36:04,VALID,917.234,VALID,0,VALID,94.8505,VALID,0,VALID,20.5188,VALID,9,VALID,0,
2012-05-08, 00:37:04,VALID,917.195,VALID,0,VALID,94.6981,VALID,0.107441,VALID,20.5204,VALID,9,VALID,0.0515625,
2012-05-08, 00:38:04,VALID,917.22,VALID,0,VALID,94.5456,VALID,0,VALID,20.4587,VALID,9,VALID,0.429688,
2012-05-08, 00:39:04,VALID,917.215,VALID,0,VALID,94.4465,VALID,0,VALID,20.4603,VALID,9,VALID,0.0632813,
2012-05-08, 00:40:04,VALID,917.202,VALID,0,VALID,94.4313,VALID,0,VALID,20.4423,VALID,9,VALID,0.387891,
2012-05-08, 00:41:04,VALID,917.22,VALID,0,VALID,94.416,VALID,0,VALID,20.4213,VALID,9,VALID,0.337891,
2012-05-08, 00:42:04,VALID,917.226,VALID,0,VALID,94.4846,VALID,0.107441,VALID,20.4018,VALID,9,VALID,0.0828125,
2012-05-08, 00:43:04,VALID,917.193,VALID,0,VALID,94.5913,VALID,0.107441,VALID,20.4439,VALID,9,VALID,0,
2012-05-08, 00:44:04,VALID,917.2,VALID,0,VALID,94.5913,VALID,0,VALID,20.4018,VALID,9,VALID,0,
2012-05-08, 00:45:04,VALID,917.15,VALID,0,VALID,94.6295,VALID,0.107441,VALID,20.4228,VALID,9,VALID,0,
2012-05-08, 00:46:04,VALID,917.14,VALID,0,VALID,94.6828,VALID,0,VALID,20.4018,VALID,9,VALID,0.0777344,
2012-05-08, 00:47:04,VALID,917.185,VALID,0,VALID,94.66,VALID,0.107441,VALID,20.3823,VALID,9,VALID,0,
2012-05-08, 00:48:04,VALID,917.202,VALID,0,VALID,94.6752,VALID,0.107441,VALID,20.3823,VALID,9,VALID,0.19375,
2012-05-08, 00:49:04,VALID,917.186,VALID,0,VALID,94.7286,VALID,0.107441,VALID,20.3838,VALID,9,VALID,0.119922,
2012-05-08, 00:50:04,VALID,917.142,VALID,0,VALID,94.7819,VALID,0,VALID,20.3628,VALID,9,VALID,0,
2012-05-08, 00:51:04,VALID,917.122,VALID,0,VALID,94.82,VALID,0,VALID,20.3838,VALID,9,VALID,0,
2012-05-08, 00:52:04,VALID,917.105,VALID,0,VALID,94.8353,VALID,0,VALID,20.3628,VALID,9,VALID,0,
2012-05-08, 00:53:04,VALID,917.144,VALID,0,VALID,94.7133,VALID,0.107441,VALID,20.3433,VALID,9,VALID,0,
2012-05-08, 00:54:04,VALID,917.146,VALID,0,VALID,94.6905,VALID,0,VALID,20.3253,VALID,9,VALID,0,
2012-05-08, 00:55:04,VALID,917.12,VALID,0,VALID,94.8048,VALID,0,VALID,20.3269,VALID,9,VALID,0,
2012-05-08, 00:56:04,VALID,917.169,VALID,0,VALID,94.9115,VALID,0,VALID,20.3058,VALID,9,VALID,0,
2012-05-08, 00:57:04,VALID,917.154,VALID,0,VALID,94.9878,VALID,0,VALID,20.3448,VALID,9,VALID,0,
2012-05-08, 00:58:04,VALID,917.144,VALID,0,VALID,95.0411,VALID,0,VALID,20.3448,VALID,9,VALID,0,
2012-05-08, 00:59:04,VALID,917.141,VALID,0,VALID,95.1326,VALID,0,VALID,20.3643,VALID,9,VALID,0,
2012-05-08, 01:00:04,VALID,917.13,VALID,0,VALID,95.1631,VALID,0,VALID,20.3643,VALID,9,VALID,0,
2012-05-08, 01:01:04,VALID,917.125,VALID,0,VALID,95.125,VALID,0,VALID,20.3448,VALID,9,VALID,0,
2012-05-08, 01:02:04,VALID,917.132,VALID,0,VALID,95.1631,VALID,0,VALID,20.3643,VALID,9,VALID,0,
2012-05-08, 01:03:04,VALID,917.125,VALID,0,VALID,95.186,VALID,0,VALID,20.3854,VALID,9,VALID,0,
2012-05-08, 01:04:04,VALID,917.121,VALID,0,VALID,95.1783,VALID,0,VALID,20.3854,VALID,9,VALID,0,
2012-05-08, 01:05:04,VALID,917.097,VALID,0,VALID,95.2241,VALID,0,VALID,20.4049,VALID,9,VALID,0,
2012-05-08, 01:06:04,VALID,917.08,VALID,0,VALID,95.2622,VALID,0,VALID,20.4033,VALID,9,VALID,0,
2012-05-08, 01:07:04,VALID,917.087,VALID,0,VALID,95.3308,VALID,0,VALID,20.4244,VALID,9,VALID,0,
2012-05-08, 01:08:04,VALID,917.06,VALID,0,VALID,95.3842,VALID,0,VALID,20.4634,VALID,9,VALID,0.373047,
2012-05-08, 01:09:04,VALID,917.055,VALID,0,VALID,95.4604,VALID,0,VALID,20.4813,VALID,9,VALID,0.232031,
2012-05-08, 01:10:04,VALID,917.043,VALID,0,VALID,95.5214,VALID,0,VALID,20.5009,VALID,9,VALID,0.204297,
2012-05-08, 01:11:04,VALID,917.039,VALID,0,VALID,95.5367,VALID,0,VALID,20.5399,VALID,9,VALID,0.227734,
2012-05-08, 01:12:04,VALID,917.025,VALID,0,VALID,95.4909,VALID,0,VALID,20.5609,VALID,9,VALID,0,
2012-05-08, 01:13:04,VALID,917.028,VALID,0,VALID,95.4223,VALID,0,VALID,20.5204,VALID,9,VALID,0.330469,
2012-05-08, 01:14:04,VALID,917.019,VALID,0,VALID,95.247,VALID,0,VALID,20.5219,VALID,9,VALID,0.532812,
2012-05-08, 01:15:04,VALID,916.989,VALID,0,VALID,95.2698,VALID,0,VALID,20.5024,VALID,9,VALID,1.07422,
2012-05-08, 01:16:04,VALID,916.963,VALID,0,VALID,95.3308,VALID,0,VALID,20.4423,VALID,9,VALID,1.14453,
2012-05-08, 01:17:04,VALID,916.955,VALID,0,VALID,95.2088,VALID,0,VALID,20.4033,VALID,9,VALID,1.11055,
2012-05-08, 01:18:04,VALID,916.916,VALID,0,VALID,95.3079,VALID,0,VALID,20.3659,VALID,9,VALID,1.05391,
2012-05-08, 01:19:04,VALID,916.894,VALID,0,VALID,95.4299,VALID,0,VALID,20.2832,VALID,9,VALID,1.16719,
2012-05-08, 01:20:04,VALID,916.913,VALID,0,VALID,95.4985,VALID,0,VALID,20.3464,VALID,9,VALID,0.857813,
2012-05-08, 01:21:04,VALID,916.872,VALID,0,VALID,95.4909,VALID,0,VALID,20.3058,VALID,9,VALID,0.357031,
2012-05-08, 01:22:04,VALID,916.855,VALID,0,VALID,95.4223,VALID,0,VALID,20.2879,VALID,9,VALID,0.569922,
2012-05-08, 01:23:04,VALID,916.875,VALID,0,VALID,95.5367,VALID,0,VALID,20.2473,VALID,9,VALID,0.611328,
2012-05-08, 01:24:04,VALID,916.865,VALID,0,VALID,95.5671,VALID,0,VALID,20.2489,VALID,9,VALID,0.920703,
2012-05-08, 01:25:04,VALID,916.86,VALID,0,VALID,95.6357,VALID,0,VALID,20.2263,VALID,9,VALID,0.833594,
2012-05-08, 01:26:04,VALID,916.854,VALID,0,VALID,95.6434,VALID,0.107441,VALID,20.2278,VALID,9,VALID,0.853906,
2012-05-08, 01:27:04,VALID,916.85,VALID,0,VALID,95.6891,VALID,0.107441,VALID,20.2068,VALID,9,VALID,0.818359,
2012-05-08, 01:28:04,VALID,916.861,VALID,0,VALID,95.7654,VALID,0.107441,VALID,20.2068,VALID,9,VALID,0.848047,
2012-05-08, 01:29:04,VALID,916.825,VALID,0,VALID,95.7882,VALID,0.107441,VALID,20.2068,VALID,9,VALID,0.513672,
2012-05-08, 01:30:04,VALID,916.829,VALID,0,VALID,95.7654,VALID,0.107441,VALID,20.1873,VALID,9,VALID,0.522656,
2012-05-08, 01:31:04,VALID,916.798,VALID,0,VALID,95.8187,VALID,0.107441,VALID,20.2083,VALID,9,VALID,0.739062,
2012-05-08, 01:32:04,VALID,916.821,VALID,0,VALID,95.9331,VALID,0.107441,VALID,20.2263,VALID,9,VALID,0.64375,
2012-05-08, 01:33:04,VALID,916.815,VALID,0,VALID,95.9407,VALID,0.107441,VALID,20.2458,VALID,9,VALID,0.284375,
2012-05-08, 01:34:04,VALID,916.802,VALID,0,VALID,95.8568,VALID,0,VALID,20.2684,VALID,9,VALID,0.00195313,
2012-05-08, 01:35:04,VALID,916.789,VALID,0,VALID,95.895,VALID,0.107441,VALID,20.2653,VALID,9,VALID,0.249609,
2012-05-08, 01:36:04,VALID,916.795,VALID,0,VALID,95.8797,VALID,0.107441,VALID,20.33,VALID,9,VALID,0,
2012-05-08, 01:37:04,VALID,916.781,VALID,0,VALID,95.8111,VALID,0.107441,VALID,20.2263,VALID,9,VALID,0,
2012-05-08, 01:38:04,VALID,916.77,VALID,0,VALID,95.9178,VALID,0.107441,VALID,20.2263,VALID,9,VALID,0.29375,
2012-05-08, 01:39:04,VALID,916.775,VALID,0,VALID,95.8873,VALID,0.107441,VALID,20.1437,VALID,9,VALID,0,
2012-05-08, 01:40:04,VALID,916.789,VALID,0,VALID,95.8187,VALID,0,VALID,20.2894,VALID,9,VALID,0,
2012-05-08, 01:41:04,VALID,916.766,VALID,0,VALID,95.9178,VALID,0,VALID,20.2489,VALID,9,VALID,0.183203,
2012-05-08, 01:42:04,VALID,916.782,VALID,0,VALID,95.712,VALID,0,VALID,20.2714,VALID,9,VALID,0,
2012-05-08, 01:43:04,VALID,916.757,VALID,0,VALID,95.4833,VALID,0,VALID,20.1123,VALID,9,VALID,0,
2012-05-08, 01:44:04,VALID,916.737,VALID,0,VALID,95.4147,VALID,0,VALID,20.0928,VALID,9,VALID,0,
2012-05-08, 01:45:04,VALID,916.689,VALID,0,VALID,95.4909,VALID,0,VALID,20.0733,VALID,9,VALID,0,
2012-05-08, 01:46:04,VALID,916.674,VALID,0,VALID,95.5976,VALID,0,VALID,20.0523,VALID,9,VALID,0,
2012-05-08, 01:47:04,VALID,916.644,VALID,0,VALID,95.5976,VALID,0,VALID,20.0328,VALID,9,VALID,0,
2012-05-08, 01:48:04,VALID,916.617,VALID,0,VALID,95.5824,VALID,0,VALID,19.9938,VALID,9,VALID,0.147656,
2012-05-08, 01:49:04,VALID,916.599,VALID,0,VALID,95.5824,VALID,0,VALID,19.9548,VALID,9,VALID,0,
2012-05-08, 01:50:04,VALID,916.565,VALID,0,VALID,95.6205,VALID,0,VALID,19.9353,VALID,9,VALID,0,
2012-05-08, 01:51:04,VALID,916.535,VALID,0,VALID,95.6815,VALID,0,VALID,19.8963,VALID,9,VALID,0.201953,
2012-05-08, 01:52:04,VALID,916.485,VALID,0,VALID,95.8645,VALID,0,VALID,19.9158,VALID,9,VALID,0.660937,
2012-05-08, 01:53:04,VALID,916.469,VALID,0,VALID,95.9559,VALID,0,VALID,19.9368,VALID,9,VALID,0.498437,
2012-05-08, 01:54:04,VALID,916.454,VALID,0,VALID,96.1236,VALID,0,VALID,19.9758,VALID,9,VALID,0.0746094,
2012-05-08, 01:55:04,VALID,916.406,VALID,0,VALID,96.1313,VALID,0.107441,VALID,19.9533,VALID,9,VALID,0,
2012-05-08, 01:56:04,VALID,916.399,VALID,0,VALID,96.1923,VALID,0,VALID,19.9743,VALID,9,VALID,0,
2012-05-08, 01:57:04,VALID,916.414,VALID,0,VALID,96.2609,VALID,0,VALID,20.0133,VALID,9,VALID,0,
2012-05-08, 01:58:04,VALID,916.397,VALID,0,VALID,96.36,VALID,0,VALID,20.0313,VALID,9,VALID,0,
2012-05-08, 01:59:04,VALID,916.393,VALID,0,VALID,96.3142,VALID,0,VALID,19.9923,VALID,9,VALID,0,
2012-05-08, 02:00:04,VALID,916.379,VALID,0,VALID,96.2609,VALID,0,VALID,19.9923,VALID,9,VALID,0,
2012-05-08, 02:01:04,VALID,916.369,VALID,0,VALID,96.2228,VALID,0,VALID,19.9533,VALID,9,VALID,0,
2012-05-08, 02:02:04,VALID,916.387,VALID,0,VALID,96.1999,VALID,0.107441,VALID,19.9548,VALID,9,VALID,0,
2012-05-08, 02:03:04,VALID,916.346,VALID,0,VALID,96.1694,VALID,0,VALID,19.9143,VALID,9,VALID,0,
2012-05-08, 02:04:04,VALID,916.327,VALID,0,VALID,96.1008,VALID,0.107441,VALID,19.8753,VALID,9,VALID,0,
2012-05-08, 02:05:04,VALID,916.304,VALID,0,VALID,96.055,VALID,0,VALID,19.8573,VALID,9,VALID,0.403516,
2012-05-08, 02:06:04,VALID,916.28,VALID,0,VALID,96.1084,VALID,0.107441,VALID,19.8363,VALID,9,VALID,0.737109,
2012-05-08, 02:07:04,VALID,916.263,VALID,0,VALID,96.3066,VALID,0.107441,VALID,19.8363,VALID,9,VALID,0.625781,
2012-05-08, 02:08:04,VALID,916.229,VALID,0,VALID,96.3676,VALID,0.107441,VALID,19.8963,VALID,9,VALID,0.654688,
2012-05-08, 02:09:04,VALID,916.233,VALID,0,VALID,96.4362,VALID,0.107441,VALID,19.8558,VALID,9,VALID,0.576563,
2012-05-08, 02:10:04,VALID,916.202,VALID,0,VALID,96.5963,VALID,0,VALID,19.8948,VALID,9,VALID,0.824609,
2012-05-08, 02:11:04,VALID,916.208,VALID,0,VALID,96.5506,VALID,0,VALID,19.9743,VALID,9,VALID,0.698047,
2012-05-08, 02:12:04,VALID,916.214,VALID,0,VALID,96.5658,VALID,0,VALID,19.9743,VALID,9,VALID,0.623828,
2012-05-08, 02:13:04,VALID,916.231,VALID,0,VALID,96.6344,VALID,0,VALID,19.9728,VALID,9,VALID,0.529297,
2012-05-08, 02:14:04,VALID,916.215,VALID,0,VALID,96.6268,VALID,0,VALID,20.0328,VALID,9,VALID,0.360938,
2012-05-08, 02:15:04,VALID,916.181,VALID,0,VALID,96.5048,VALID,0,VALID,20.0343,VALID,9,VALID,0.330859,
2012-05-08, 02:16:04,VALID,916.161,VALID,0,VALID,96.4438,VALID,0,VALID,19.9743,VALID,9,VALID,0.462109,
2012-05-08, 02:17:04,VALID,916.119,VALID,0,VALID,96.5277,VALID,0,VALID,19.9953,VALID,9,VALID,0.369531,
2012-05-08, 02:18:04,VALID,916.1,VALID,0,VALID,96.5048,VALID,0,VALID,19.9953,VALID,9,VALID,0,
2012-05-08, 02:19:04,VALID,916.118,VALID,0,VALID,96.5201,VALID,0,VALID,19.9743,VALID,9,VALID,0.166016,
2012-05-08, 02:20:04,VALID,916.131,VALID,0,VALID,96.4515,VALID,0,VALID,19.9563,VALID,9,VALID,0,
2012-05-08, 02:21:04,VALID,916.135,VALID,0,VALID,96.4286,VALID,0,VALID,19.9368,VALID,9,VALID,0,
2012-05-08, 02:22:04,VALID,916.15,VALID,0,VALID,96.421,VALID,0,VALID,19.9173,VALID,9,VALID,0,
2012-05-08, 02:23:04,VALID,916.115,VALID,0,VALID,96.3676,VALID,0,VALID,19.8783,VALID,9,VALID,0,
2012-05-08, 02:24:04,VALID,916.092,VALID,0,VALID,96.4591,VALID,0,VALID,19.8978,VALID,9,VALID,0,
2012-05-08, 02:25:04,VALID,916.126,VALID,0,VALID,96.6649,VALID,0,VALID,19.9743,VALID,9,VALID,0.0808594,
2012-05-08, 02:26:04,VALID,916.099,VALID,0,VALID,96.0017,VALID,0,VALID,19.8378,VALID,9,VALID,0,
2012-05-08, 02:27:04,VALID,916.132,VALID,0,VALID,96.0322,VALID,0,VALID,19.7208,VALID,9,VALID,0.248828,
2012-05-08, 02:28:04,VALID,916.123,VALID,0,VALID,96.2151,VALID,0,VALID,19.7013,VALID,9,VALID,0.457031,
2012-05-08, 02:29:04,VALID,916.094,VALID,0,VALID,96.2609,VALID,0,VALID,19.7013,VALID,9,VALID,0.0347656,
2012-05-08, 02:30:04,VALID,916.109,VALID,0,VALID,96.2685,VALID,0,VALID,19.6818,VALID,9,VALID,0,
2012-05-08, 02:31:04,VALID,916.106,VALID,0,VALID,96.4438,VALID,0,VALID,19.6803,VALID,9,VALID,0,
2012-05-08, 02:32:04,VALID,916.098,VALID,0,VALID,96.6039,VALID,0,VALID,19.7778,VALID,9,VALID,0,
2012-05-08, 02:33:04,VALID,916.154,VALID,0,VALID,96.5887,VALID,0.107441,VALID,19.8183,VALID,9,VALID,0,
2012-05-08, 02:34:04,VALID,916.154,VALID,0,VALID,96.642,VALID,0,VALID,19.8573,VALID,9,VALID,0,
2012-05-08, 02:35:04,VALID,916.174,VALID,0,VALID,96.642,VALID,0,VALID,19.8768,VALID,9,VALID,0,
2012-05-08, 02:36:04,VALID,916.206,VALID,0,VALID,96.6573,VALID,0,VALID,19.8768,VALID,9,VALID,0,
2012-05-08, 02:37:04,VALID,916.171,VALID,0,VALID,96.7183,VALID,0,VALID,19.9158,VALID,9,VALID,0,
2012-05-08, 02:38:04,VALID,916.14,VALID,0,VALID,96.7869,VALID,0,VALID,19.9938,VALID,9,VALID,0,
2012-05-08, 02:39:04,VALID,916.139,VALID,0,VALID,96.7488,VALID,0,VALID,20.0133,VALID,9,VALID,0,
2012-05-08, 02:40:04,VALID,916.153,VALID,0,VALID,96.6268,VALID,0,VALID,19.9938,VALID,9,VALID,0,
2012-05-08, 02:41:04,VALID,916.17,VALID,0,VALID,96.7945,VALID,0,VALID,20.0133,VALID,9,VALID,0.176953,
2012-05-08, 02:42:04,VALID,916.174,VALID,0,VALID,96.886,VALID,0,VALID,20.0913,VALID,9,VALID,0.402344,
2012-05-08, 02:43:04,VALID,916.146,VALID,0,VALID,96.8784,VALID,0,VALID,20.1303,VALID,9,VALID,0.379687,
2012-05-08, 02:44:04,VALID,916.15,VALID,0,VALID,96.9241,VALID,0,VALID,20.2293,VALID,9,VALID,0.212109,
2012-05-08, 02:45:04,VALID,916.119,VALID,0,VALID,96.886,VALID,0,VALID,20.2699,VALID,9,VALID,0,
2012-05-08, 02:46:04,VALID,916.092,VALID,0,VALID,96.8326,VALID,0,VALID,20.2068,VALID,9,VALID,0,
2012-05-08, 02:47:04,VALID,916.114,VALID,0,VALID,96.7259,VALID,0,VALID,20.2083,VALID,9,VALID,0,
2012-05-08, 02:48:04,VALID,916.104,VALID,0,VALID,96.7488,VALID,0,VALID,20.2083,VALID,9,VALID,0,
2012-05-08, 02:49:04,VALID,916.088,VALID,0,VALID,96.7793,VALID,0,VALID,20.2278,VALID,9,VALID,0,
2012-05-08, 02:50:04,VALID,916.094,VALID,0,VALID,96.7488,VALID,0,VALID,20.2068,VALID,9,VALID,0,
2012-05-08, 02:51:04,VALID,916.078,VALID,0,VALID,96.764,VALID,0,VALID,20.2473,VALID,9,VALID,0,
2012-05-08, 02:52:04,VALID,916.045,VALID,0,VALID,96.7869,VALID,0,VALID,20.2473,VALID,9,VALID,0,
2012-05-08, 02:53:04,VALID,916.013,VALID,0,VALID,96.7869,VALID,0,VALID,20.3058,VALID,9,VALID,0,
2012-05-08, 02:54:04,VALID,916.069,VALID,0,VALID,96.7716,VALID,0.107441,VALID,20.3253,VALID,9,VALID,0,
2012-05-08, 02:55:04,VALID,916.006,VALID,0,VALID,96.7335,VALID,0,VALID,20.3058,VALID,9,VALID,0,
2012-05-08, 02:56:04,VALID,916.018,VALID,0,VALID,96.7259,VALID,0,VALID,20.3448,VALID,9,VALID,0.00585938,
2012-05-08, 02:57:04,VALID,915.979,VALID,0,VALID,96.703,VALID,0,VALID,20.3643,VALID,9,VALID,0,
2012-05-08, 02:58:04,VALID,915.984,VALID,0,VALID,96.7183,VALID,0,VALID,20.3823,VALID,9,VALID,0,
2012-05-08, 02:59:04,VALID,915.939,VALID,0,VALID,96.6649,VALID,0,VALID,20.3823,VALID,9,VALID,0,
2012-05-08, 03:00:04,VALID,915.936,VALID,0,VALID,96.5811,VALID,0,VALID,20.4423,VALID,9,VALID,0,
2012-05-08, 03:01:04,VALID,915.914,VALID,0,VALID,96.4896,VALID,0,VALID,20.4033,VALID,9,VALID,0.276563,
2012-05-08, 03:02:04,VALID,915.89,VALID,0,VALID,96.421,VALID,0,VALID,20.3628,VALID,9,VALID,0.380859,
2012-05-08, 03:03:04,VALID,915.88,VALID,0,VALID,96.5353,VALID,0,VALID,20.4228,VALID,9,VALID,0.747656,
2012-05-08, 03:04:04,VALID,915.883,VALID,0,VALID,96.5353,VALID,0,VALID,20.4213,VALID,9,VALID,0.732422,
2012-05-08, 03:05:04,VALID,915.843,VALID,0,VALID,96.5277,VALID,0,VALID,20.4618,VALID,9,VALID,0.471094,
2012-05-08, 03:06:04,VALID,915.856,VALID,0,VALID,96.4896,VALID,0,VALID,20.4618,VALID,9,VALID,0.695703,
2012-05-08, 03:07:04,VALID,915.828,VALID,0,VALID,96.4972,VALID,0,VALID,20.4813,VALID,9,VALID,0.114844,
2012-05-08, 03:08:04,VALID,915.838,VALID,0,VALID,96.4743,VALID,0,VALID,20.4798,VALID,9,VALID,0.188672,
2012-05-08, 03:09:04,VALID,915.815,VALID,0,VALID,96.4057,VALID,0.107441,VALID,20.5204,VALID,9,VALID,0.145313,
2012-05-08, 03:10:04,VALID,915.807,VALID,0,VALID,96.36,VALID,0,VALID,20.5009,VALID,9,VALID,0.148438,
2012-05-08, 03:11:04,VALID,915.831,VALID,0,VALID,96.3524,VALID,0,VALID,20.5204,VALID,9,VALID,0,
2012-05-08, 03:12:04,VALID,915.859,VALID,0,VALID,96.3219,VALID,0,VALID,20.5204,VALID,9,VALID,0,
2012-05-08, 03:13:04,VALID,915.825,VALID,0,VALID,96.3295,VALID,0,VALID,20.5204,VALID,9,VALID,0,
2012-05-08, 03:14:04,VALID,915.839,VALID,0,VALID,96.299,VALID,0,VALID,20.5188,VALID,9,VALID,0.0332031,
2012-05-08, 03:15:04,VALID,915.842,VALID,0,VALID,96.2456,VALID,0,VALID,20.5204,VALID,9,VALID,0,
2012-05-08, 03:16:04,VALID,915.853,VALID,0,VALID,96.2456,VALID,0,VALID,20.5399,VALID,9,VALID,0,
2012-05-08, 03:17:04,VALID,915.883,VALID,0,VALID,96.2075,VALID,0,VALID,20.5204,VALID,9,VALID,0,
2012-05-08, 03:18:04,VALID,915.873,VALID,0,VALID,96.1618,VALID,0,VALID,20.5399,VALID,9,VALID,0.0203125,
2012-05-08, 03:19:04,VALID,915.85,VALID,0,VALID,96.1313,VALID,0,VALID,20.4993,VALID,9,VALID,0.424219,
2012-05-08, 03:20:04,VALID,915.872,VALID,0,VALID,96.1236,VALID,0,VALID,20.5204,VALID,9,VALID,0.0816406,
2012-05-08, 03:21:04,VALID,915.871,VALID,0,VALID,96.0932,VALID,0.107441,VALID,20.4993,VALID,9,VALID,0,
2012-05-08, 03:22:04,VALID,915.887,VALID,0,VALID,96.116,VALID,0,VALID,20.4798,VALID,9,VALID,0,
2012-05-08, 03:23:04,VALID,915.909,VALID,0,VALID,96.1008,VALID,0.107441,VALID,20.5009,VALID,9,VALID,0,
2012-05-08, 03:24:04,VALID,915.902,VALID,0,VALID,96.1084,VALID,0.107441,VALID,20.5204,VALID,9,VALID,0,
2012-05-08, 03:25:04,VALID,915.866,VALID,0,VALID,96.0932,VALID,0,VALID,20.4993,VALID,9,VALID,0.983594,
2012-05-08, 03:26:04,VALID,915.85,VALID,0,VALID,96.1008,VALID,0,VALID,20.4993,VALID,9,VALID,0.799219,
2012-05-08, 03:27:04,VALID,915.885,VALID,0,VALID,96.0703,VALID,0,VALID,20.5188,VALID,9,VALID,0.660937,
2012-05-08, 03:28:04,VALID,915.859,VALID,0,VALID,96.0398,VALID,0,VALID,20.5188,VALID,8,VALID,0.603906,
2012-05-08, 03:29:04,VALID,915.853,VALID,0,VALID,96.0017,VALID,0,VALID,20.5204,VALID,8,VALID,0.973437,
2012-05-08, 03:30:04,VALID,915.834,VALID,0,VALID,95.9712,VALID,0,VALID,20.4993,VALID,8,VALID,0.96875,
2012-05-08, 03:31:04,VALID,915.817,VALID,0,VALID,95.9636,VALID,0,VALID,20.5399,VALID,8,VALID,1.01484,
2012-05-08, 03:32:04,VALID,915.847,VALID,0,VALID,95.9407,VALID,0,VALID,20.4993,VALID,359,VALID,1.34648,
2012-05-08, 03:33:04,VALID,915.832,VALID,0,VALID,95.8721,VALID,0.107441,VALID,20.5399,VALID,351,VALID,0.746094,
2012-05-08, 03:34:04,VALID,915.839,VALID,0,VALID,95.8416,VALID,0,VALID,20.5594,VALID,11,VALID,0.63125,
2012-05-08, 03:35:04,VALID,915.823,VALID,0,VALID,95.8035,VALID,0,VALID,20.5594,VALID,15,VALID,1.3418,
2012-05-08, 03:36:04,VALID,915.814,VALID,0,VALID,95.773,VALID,0,VALID,20.5578,VALID,14,VALID,1.12109,
2012-05-08, 03:37:04,VALID,915.822,VALID,0,VALID,95.712,VALID,0,VALID,20.5984,VALID,29,VALID,0.917969,
2012-05-08, 03:38:04,VALID,915.821,VALID,0,VALID,95.651,VALID,0.107441,VALID,20.5984,VALID,29,VALID,0.882813,
2012-05-08, 03:39:04,VALID,915.814,VALID,0,VALID,95.6129,VALID,0,VALID,20.5773,VALID,29,VALID,0.532422,
2012-05-08, 03:40:04,VALID,915.836,VALID,0,VALID,95.5824,VALID,0,VALID,20.5968,VALID,29,VALID,0.143359,
2012-05-08, 03:41:04,VALID,915.864,VALID,0,VALID,95.5519,VALID,0,VALID,20.5968,VALID,29,VALID,0.346484,
2012-05-08, 03:42:04,VALID,915.84,VALID,0,VALID,95.4909,VALID,0,VALID,20.5968,VALID,28,VALID,0.663281,
2012-05-08, 03:43:04,VALID,915.823,VALID,0,VALID,95.4452,VALID,0,VALID,20.5968,VALID,28,VALID,0.182031,
2012-05-08, 03:44:04,VALID,915.811,VALID,0,VALID,95.3994,VALID,0,VALID,20.6179,VALID,29,VALID,0,
2012-05-08, 03:45:04,VALID,915.76,VALID,0,VALID,95.3384,VALID,0,VALID,20.6374,VALID,28,VALID,0,
2012-05-08, 03:46:04,VALID,915.818,VALID,0,VALID,95.3079,VALID,0.107441,VALID,20.6163,VALID,28,VALID,0,
2012-05-08, 03:47:04,VALID,915.792,VALID,0,VALID,95.2393,VALID,0.107441,VALID,20.5968,VALID,29,VALID,0,
2012-05-08, 03:48:04,VALID,915.794,VALID,0,VALID,95.186,VALID,0,VALID,20.6179,VALID,29,VALID,0.341797,
2012-05-08, 03:49:04,VALID,915.846,VALID,0,VALID,95.1097,VALID,0,VALID,20.5773,VALID,29,VALID,0,
2012-05-08, 03:50:04,VALID,915.824,VALID,0,VALID,95.0335,VALID,0,VALID,20.5773,VALID,29,VALID,0.152734,
2012-05-08, 03:51:04,VALID,915.835,VALID,0,VALID,95.0259,VALID,0.107441,VALID,20.5789,VALID,29,VALID,0.192969,